FM-6

Last updated on Tue Jul 01 2025 00:02:46 GMT+0000 (Coordinated Universal Time)

1 39360U 13058A 25181.56125500 -.00000017 00000+0 00000+0 0 9996 2 39360 0.0396 74.3740 0001667 97.7497 192.6320 1.00269945 42532
UTC large
Height (km)
Speed (km/s)
/
Latitude / Longitude
Inclination (degrees)
Orbital Period (minutes)
Azimuth
Elevation
Range (km)
Doppler Factor

Next 0 passes for location: London (51.5072 / 0.1276)

Sorry there are no passes over London.